Regional Weather Roundup
Issued by NWS

Home | Current Version | Previous Version | Text Only | Print | Product List | Glossary On
Versions: 1 2 3 4 5 6 7 8 9 10 11 12 13 14 15 16 17 18 19 20 21 22 23 24 25 26 27 28 29 30 31 32 33 34 35 36 37 38 39 40 41 42 43 44 45 46 47 48 49 50
000
ASUS43 KDMX 102208
RWRIA

WEATHER ROUNDUP FOR IOWA
NATIONAL WEATHER SERVICE DES MOINES IA
400 PM CST WED FEB 10 2016

NOTE: "FAIR" INDICATES FEW OR NO CLOUDS BELOW 12,000 FEET WITH NO
SIGNIFICANT WEATHER AND/OR OBSTRUCTIONS TO VISIBILITY.

* - THESE STATIONS ARE NOT NWS STATIONS...THUS NOT UNDER NWS
QUALITY CONTROL.  THEY ALSO DO NOT REPORT WEATHER SUCH
AS PRECIPITATION OR FOG.

IAZ001>003-012>014-020>022-031>034-043>046-102300-
   NORTHWEST IOWA

CITY           SKY/WX    TMP DP  RH WIND       PRES   REMARKS
CARROLL *      CLOUDY    18  14  86 E16       30.01R WCI   3
CHEROKEE *     CLOUDY    16  14  93 E14       30.02R WCI   1
DENISON *      PTSUNNY   19  16  86 E16G22    29.97R WCI   5
LE MARS *      CLOUDY    19  18  93 E15G24    30.00R WCI   5
ORANGE CITY *  CLOUDY    18  14  86 E10G18    29.99R WCI   6
SHELDON *      CLOUDY    14  12  92 E16       30.00R WCI  -2
SIOUX CITY     CLOUDY    25  18  74 E17       29.97R WCI  12
SPENCER        CLOUDY    14   8  77 E13       30.03R WCI   0
STORM LAKE *   CLOUDY    14  14 100 E15       30.01R WCI  -1
$$

IAZ055>058-069>071-079>083-090>094-102300-
   SOUTHWEST IOWA

CITY           SKY/WX    TMP DP  RH WIND       PRES   REMARKS
ATLANTIC *     CLOUDY    27  23  86 E14G21    29.96R WCI  15
AUDUBON *      MOSUNNY   21  16  79 E14       29.98R WCI   8
CLARINDA *     SUNNY     41  23  48 SE7       29.95R
COUNCIL BLFS * SUNNY     36  23  60 E9        29.92S WCI  29
CRESTON *      CLOUDY    27  21  80 E16       29.97S WCI  14
HARLAN  *      CLOUDY    25  21  86 E14       29.99R WCI  13
LAMONI         CLOUDY    26  20  77 E9        29.98R WCI  17
RED OAK *      SUNNY     39  23  52 E8        29.93S WCI  34
SHENANDOAH *   SUNNY     43  23  45 E5        29.93R
$$

IAZ047>049-059>061-072>074-084-102300-
   CENTRAL IOWA

CITY           SKY/WX    TMP DP  RH WIND       PRES   REMARKS
AMES           CLOUDY    16  10  77 E9        30.06R WCI   4
ANKENY *       CLOUDY    18  14  86 E9        30.07R WCI   6
BOONE *        CLOUDY    16  10  79 E10       30.03R WCI   3
CHARITON *     CLOUDY    21  18  86 E10       30.03R WCI  10
DES MOINES     CLOUDY    19  12  74 E9        30.06R WCI   8
GRINNELL*      CLOUDY    16  10  79 E6        30.07R WCI   7
KNOXVILLE *    CLOUDY    19  12  73 E7        30.05R WCI  10
MARSHALLTOWN   CLOUDY    13   6  74 NE8       30.07R WCI   2
NEWTON *       CLOUDY    18  12  79 E9        30.06R WCI   6
PELLA *        CLOUDY    19  14  79 E6        30.08S WCI  11
$$

IAZ004>006-015-016-023>025-035-036-102300-
   NORTH CENTRAL IOWA

CITY           SKY/WX    TMP DP  RH WIND       PRES   REMARKS
ALGONA *       CLOUDY    12   7  79 E12       30.03F WCI  -2
CLARION *      FLURRIES  12   5  73 E10       30.05F WCI  -1
ESTHERVILLE    CLOUDY    11   6  81 E12       30.04R WCI  -3
FORT DODGE *   CLOUDY    14   7  73 E13       30.05R WCI   0
MASON CITY     MOSUNNY   11   2  67 NE7       30.07S WCI   0
FOREST CITY *  PTSUNNY   12   3  67 NE6       30.06R WCI   3
WEBSTER CITY * FLURRIES  14   9  79 E12       30.04R WCI   0
IOWA FALLS *   FLURRIES  14   7  73 NE6       30.07R WCI   5
$$

IAZ007>011-017>019-026>030-037>042-050>054-066-102300-
   NORTHEAST IOWA

CITY           SKY/WX    TMP DP  RH WIND       PRES   REMARKS
CEDAR RAPIDS   CLOUDY    16   4  59 N8        30.07R WCI   5
CHARLES CITY * CLOUDY    12  -2  52 N6        30.08R WCI   3
CLINTON *      CLOUDY    17   4  56 N8        30.07R WCI   7
DECORAH *      CLOUDY    10  -2  56 NW9       30.05R WCI  -2
DUBUQUE        SUNNY     14   0  53 NW6       30.04R WCI   5
MONTICELLO *   PTSUNNY   16   3  57 CALM      30.07R
OELWEIN *      PTSUNNY   12  -2  52 N7        30.07R WCI   2
WATERLOO       PTSUNNY   14  -1  51 N7        30.08R WCI   4
$$

IAZ064-065-067-068-078-102300-
   EAST CENTRAL IOWA

CITY           SKY/WX    TMP DP  RH WIND       PRES   REMARKS
DAVENPORT      CLOUDY    18   1  47 NW9       30.07R WCI   7
IOWA CITY      CLOUDY    19   2  47 NW7       30.10R WCI  10
MT. PLEASANT * FLURRIES  21  16  79 CALM      30.09S
MUSCATINE *    CLOUDY    19   1  45 W6        30.11R WCI  11
QUAD CITIES    CLOUDY    19   2  47 NW8       30.08R WCI   9
$$

IAZ062-063-075>077-085>089-095>099-102300-
   SOUTHEAST IOWA

CITY           SKY/WX    TMP DP  RH WIND       PRES   REMARKS
BURLINGTON     CLOUDY    18  11  74 NW6       30.09R WCI  10
FAIRFIELD *    CLOUDY    18  10  73 CALM      30.08S
FORT MADISON * LGT SNOW  18  14  86 CALM      30.10R
KEOKUK *       FLURRIES  19  16  86 CALM      30.10R
OSKALOOSA *    CLOUDY    19  14  79 SE6       30.08R WCI  11
CENTERVILLE *  CLOUDY    19  18  93 E8        30.05R WCI   9
OTTUMWA        CLOUDY    18  13  80 SE5       30.07R WCI  11
WASHINGTON *   CLOUDY    18  10  73 CALM      30.10R
$$

ABBREVIATIONS USED IN REMARKS
   TC - TEMPERATURES IN CELSIUS
  WCI - WIND CHILL INDEX
   HX - HEAT INDEX
  VSB - VISIBILITY
$$




USA.gov is the U.S. government's official web portal to all federal, state and local government web resources and services.